This is the latest recevied weather packets stored in our database for station/object OE6JUE. If no packets are shown the sender has not sent any weather packets the latest 10 day(s).
| Time | Temp. | Humidity | Pressure | Rain* | Wind** | Luminosity | Snow |
|---|---|---|---|---|---|---|---|
| 1777901989 | 28.89° C | 21% | 1015.2 hPa | 0 mm | - | - | - |
| 1777901690 | 28.33° C | 21% | 1015.3 hPa | 0 mm | - | - | - |
| 1777901389 | 28.33° C | 21% | 1015.3 hPa | 0 mm | - | - | - |
| 1777901089 | 27.78° C | 21% | 1015.3 hPa | 0 mm | - | - | - |
| 1777900790 | 27.78° C | 21% | 1015.4 hPa | 0 mm | - | - | - |
| 1777900490 | 27.78° C | 21% | 1015.6 hPa | 0 mm | - | - | - |
| 1777900190 | 27.78° C | 22% | 1015.5 hPa | 0 mm | - | - | - |
| 1777899890 | 27.78° C | 21% | 1015.7 hPa | 0 mm | - | - | - |
| 1777899589 | 27.78° C | 23% | 1015.7 hPa | 0 mm | - | - | - |
| 1777899290 | 27.22° C | 28% | 1015.7 hPa | 0 mm | - | - | - |
| 1777898990 | 26.67° C | 27% | 1015.8 hPa | 0 mm | - | - | - |
| 1777898690 | 26.67° C | 27% | 1015.9 hPa | 0 mm | - | - | - |
| 1777898390 | 26.67° C | 27% | 1015.8 hPa | 0 mm | - | - | - |
| 1777898089 | 27.22° C | 30% | 1016 hPa | 0 mm | - | - | - |
| 1777897790 | 27.22° C | 26% | 1016 hPa | 0 mm | - | - | - |
| 1777897490 | 27.22° C | 26% | 1016 hPa | 0 mm | - | - | - |
| 1777897189 | 27.22° C | 28% | 1016.1 hPa | 0 mm | - | - | - |
| 1777896889 | 26.11° C | 27% | 1016.3 hPa | 0 mm | - | - | - |
| 1777896589 | 26.11° C | 30% | 1016.3 hPa | 0 mm | - | - | - |
| 1777896289 | 26.11° C | 30% | 1016.4 hPa | 0 mm | - | - | - |
| 1777895990 | 26.11° C | 27% | 1016.4 hPa | 0 mm | - | - | - |
| 1777895690 | 26.11° C | 28% | 1016.5 hPa | 0 mm | - | - | - |
| 1777895389 | 25.56° C | 31% | 1016.5 hPa | 0 mm | - | - | - |
| 1777895089 | 24.44° C | 30% | 1016.7 hPa | 0 mm | - | - | - |
| 1777894790 | 24.44° C | 30% | 1016.7 hPa | 0 mm | - | - | - |
* Rain latest hour (hover to see other rain measurements)
** Current wind speed in m/s (hover to see current wind gust speed)